{"data":{"norad_id":58855,"epoch":"2026-09-20T14:13:50.708064Z","epoch_age_seconds":144480,"freshness":"FRESH","line1":"1 58855U 24019C   26263.59294801  .00000398  00000+0  23978-4 0  9996","line2":"2 58855  42.9996 227.9432 0000970 266.7009  93.3731 15.27573376148899","mean_motion":15.27573376,"eccentricity":9.7e-5,"inclination_deg":42.9996,"raan_deg":227.9432,"arg_perigee_deg":266.7009,"mean_anomaly_deg":93.3731,"bstar":2.3978e-5,"rev_number":14889,"period_min":94.26715748154,"perigee_km":482.40339377502,"apogee_km":483.73446772558,"semimajor_km":6861.2059307503,"source":"CELESTRAK","updated_at":"2026-09-21T09:00:33.987301Z"}}